Tracking 19475 objects as of 18-Jan-2019
HD Live streaming from Space Station
objects crossing your sky now

CARTOSAT-1

Track CARTOSAT-1 now!
10-day predictions
CARTOSAT-1 is classified as:


NORAD ID: 28649
Int'l Code: 2005-017A
Perigee: 624.6 km
Apogee: 626.4 km
Inclination: 97.8 °
Period: 97.1 minutes
Semi major axis: 6996 km
RCS: 4.7551 m2 (large)
Launch date: May 5, 2005
Source: India (IND)
Launch site: SRIHARIKOTA (SRI)

Remote sensing and mapping, land use, forest cover, river flow assessments.
aabbcc
Your satellite tracking list
Your tracking list is empty




NASA's NSSDC Master Catalog

Two Line Element Set (TLE):
1 28649U 05017A   19018.43577844  .00000036  00000-0  10667-4 0  9996
2 28649  97.8011  91.6251 0001269   9.9995 350.1257 14.83484141742004
Source of the keplerian elements: AFSPC